Regional Weather Roundup
Issued by NWS

Home | Current Version | Previous Version | Text Only | Print | Product List | Glossary Off
Versions: 1 2 3 4 5 6 7 8 9 10 11 12 13 14 15 16 17 18 19 20 21 22 23 24 25 26 27 28 29 30 31 32 33 34 35 36 37 38 39 40 41 42 43 44 45 46 47 48 49 50

000
ASUS43 KMKX 241811
RWRWI

WISCONSIN REGIONAL WEATHER ROUNDUP
NATIONAL WEATHER SERVICE MILWAUKEE/SULLIVAN WI
100 PM CDT FRI OCT 24 2014

NOTE: "FAIR" INDICATES FEW OR NO CLOUDS BELOW 12,000 FEET WITH NO
SIGNIFICANT WEATHER AND/OR OBSTRUCTIONS TO VISIBILITY.

WIZ001-002-006>008-014>016-023>028-241900-
NORTHWEST WISCONSIN

CITY           SKY/WX    TMP DP  RH WIND       PRES   REMARKS
SUPERIOR ARPT  SUNNY     67  51  55 SW9       29.79F
6HR MIN TEMP:  37; 6HR MAX TEMP:  67;

ASHLAND        SUNNY     67  47  48 SW13      29.83F
6HR MIN TEMP:  44; 6HR MAX TEMP:  68;

HAYWARD        SUNNY     61  49  64 S12       29.86F
6HR MIN TEMP:  48; 6HR MAX TEMP:  62;

SIREN          SUNNY     65  50  58 S10       29.84F
6HR MIN TEMP:  47; 6HR MAX TEMP:  65;

CUMBERLAND     PTSUNNY   59  48  67 S9        29.87F
RICE LAKE      MOSUNNY   59  49  70 SE8       29.89F
6HR MIN TEMP:  49; 6HR MAX TEMP:  59;

CHETEK         PTSUNNY   57  51  80 SE9       29.89F
6HR MIN TEMP:  48; 6HR MAX TEMP:  58;

LADYSMITH      SUNNY     57  50  78 S8        29.91F
6HR MIN TEMP:  47; 6HR MAX TEMP:  57;

EAU CLAIRE     PTSUNNY   59  49  69 S9        29.88F
6HR MIN TEMP:  49; 6HR MAX TEMP:  59;

MENOMONIE      CLOUDY    60  50  69 SE6       29.88F
6HR MIN TEMP:  49; 6HR MAX TEMP:  61;

NEW RICHMOND   CLOUDY    60  53  77 S9        29.87S
6HR MIN TEMP:  45; 6HR MAX TEMP:  60;

OSCEOLA        PTSUNNY   62  55  76 S10       29.88F
6HR MIN TEMP:  47; 6HR MAX TEMP:  63;

$$

WIZ003>005-009-010-017-018-241900-
NORTH CENTRAL WISCONSIN

CITY           SKY/WX    TMP DP  RH WIND       PRES   REMARKS
MANITOWISH WTR MOSUNNY   54  48  82 S9        29.89F
6HR MIN TEMP:  44; 6HR MAX TEMP:  54;

ARBOR VITAE    MOSUNNY   54  49  83 S8        29.90F
6HR MIN TEMP:  44; 6HR MAX TEMP:  54;

WOODRUFF       MOSUNNY   54  49  83 S8        29.90F
6HR MIN TEMP:  44; 6HR MAX TEMP:  54;

RHINELANDER    MOSUNNY   52  46  80 S7        29.92F
6HR MIN TEMP:  42; 6HR MAX TEMP:  52;

EAGLE RIVER    MOSUNNY   54  48  81 SW6       29.91F
6HR MIN TEMP:  42; 6HR MAX TEMP:  54;

LAND O LAKES   MOSUNNY   58  47  66 S6        29.91F
6HR MIN TEMP:  44; 6HR MAX TEMP:  58;

PHILLIPS       SUNNY     58  47  69 S8        29.89F
6HR MIN TEMP:  44; 6HR MAX TEMP:  58;

TOMAHAWK       PTSUNNY   50  49  97 CALM      29.93F
6HR MIN TEMP:  43; 6HR MAX TEMP:  50;

MEDFORD        CLOUDY    49  48  97 SE8       29.93F
6HR MIN TEMP:  43; 6HR MAX TEMP:  49;

MERRILL        CLOUDY    49  48  97 S3        29.94F
6HR MIN TEMP:  43; 6HR MAX TEMP:  49;

$$

WIZ029-030-035-036-043>047-241900-
CENTRAL WISCONSIN

CITY           SKY/WX    TMP DP  RH WIND       PRES   REMARKS
WAUSAU         CLOUDY    48  47  96 S8        29.94F FOG
6HR MIN TEMP:  44; 6HR MAX TEMP:  48;

MOSINEE        CLOUDY    46  46 100 MISG      29.97F FOG
MARSHFIELD     CLOUDY    50  49  96 S8        29.94F
6HR MIN TEMP:  45; 6HR MAX TEMP:  50;

STEVENS POINT  CLOUDY    48  47  97 SW6       29.97F
6HR MIN TEMP:  43; 6HR MAX TEMP:  48; 6HR PCP:  0.02;

WAUPACA        CLOUDY    52  51  96 S8        29.98F
6HR MIN TEMP:  48; 6HR MAX TEMP:  52;

WAUTOMA        CLOUDY    52  50  93 SW6       29.99F
6HR MIN TEMP:  47; 6HR MAX TEMP:  52;

WISC RAPIDS    CLOUDY    50  48  93 S5        29.98F
6HR MIN TEMP:  46; 6HR MAX TEMP:  50;

CAMP DOUGLAS   NOT AVBL
$$

WIZ011>013-019>022-031-037>040-048>050-241900-
NORTHEAST WISCONSIN

CITY           SKY/WX    TMP DP  RH WIND       PRES   REMARKS
ANTIGO         CLOUDY    49  49 100 SW7       29.95F
6HR MIN TEMP:  42; 6HR MAX TEMP:  49;

SHAWANO        CLOUDY    51  49  93 SW5       29.97F FOG
6HR MIN TEMP:  47; 6HR MAX TEMP:  51;

OCONTO         CLOUDY    50  49  94 W7        29.97F
6HR MIN TEMP:  46; 6HR MAX TEMP:  51;

STURGEON BAY   CLOUDY    52  46  82 SW6       29.97F
6HR MIN TEMP:  48; 6HR MAX TEMP:  52;

GREEN BAY      CLOUDY    51  48  89 SW7       29.98F FOG
6HR MIN TEMP:  48; 6HR MAX TEMP:  51;

MANITOWOC      CLOUDY    55  50  83 SW7       29.98F
6HR MIN TEMP:  49; 6HR MAX TEMP:  55;

APPLETON         N/A     48  48 100 SW10      29.99F FOG
CLINTONVILLE   CLOUDY    50  46  87 SW5       29.98F
OSHKOSH        CLOUDY    52  50  93 S8        29.99F
6HR MIN TEMP:  48; 6HR MAX TEMP:  52;

$$

WIZ032>034-041-042-053>061-241900-
SOUTHWEST WISCONSIN

CITY           SKY/WX    TMP DP  RH WIND       PRES   REMARKS
LA CROSSE      CLOUDY    62  53  72 S10       29.91F
6HR MIN TEMP:  51; 6HR MAX TEMP:  62;

SPARTA         SUNNY     62  48  61 S9        29.94F
6HR MIN TEMP:  48; 6HR MAX TEMP:  62;

VIROQUA        PTSUNNY   59  56  88 S12       29.95F
6HR MIN TEMP:  47; 6HR MAX TEMP:  59;

BOSCOBEL       MOSUNNY   62  53  72 S8        29.98F
6HR MIN TEMP:  51; 6HR MAX TEMP:  62;

PRAIRIE DU CHI PTSUNNY   63  50  62 S7        29.96F
6HR MIN TEMP:  51; 6HR MAX TEMP:  63;

PLATTEVILLE    CLOUDY    55  54  97 S13       30.00F
6HR MIN TEMP:  50; 6HR MAX TEMP:  55;

$$

WIZ056-057-062-063-064-067-068-241900-
SOUTH CENTRAL WISCONSIN

CITY           SKY/WX    TMP DP  RH WIND       PRES   REMARKS
REEDSBURG      CLOUDY    54  51  89 S7        29.98F
6HR MIN TEMP:  46; 6HR MAX TEMP:  54;

BARABOO/DELLS  MOSUNNY   56  49  77 S6        29.98F
6HR MIN TEMP:  46; 6HR MAX TEMP:  56;

LONE ROCK      CLOUDY    62  52  69 S7        29.99F
6HR MIN TEMP:  52; 6HR MAX TEMP:  62;

MINERAL POINT  CLOUDY    55  54  94 S10       29.99F
MADISON        CLOUDY    54  50  86 S9        30.01F
6HR MIN TEMP:  49; 6HR MAX TEMP:  54;

MIDDLETON      CLOUDY    57  53  85 SW5       30.01F
6HR MIN TEMP:  49; 6HR MAX TEMP:  58;

WATERTOWN      CLOUDY    52  51  99 S6        30.01F
6HR MIN TEMP:  47; 6HR MAX TEMP:  52;

MONROE         CLOUDY    52  52 100 SW7       30.01F
JANESVILLE     CLOUDY    54  52  94 S8        30.01F FOG
$$

WIZ051-052-058>065-066-070>072-241900-
SOUTHEAST WISCONSIN

CITY           SKY/WX    TMP DP  RH WIND       PRES   REMARKS
MILWAUKEE      PTSUNNY   55  49  80 SW7       30.02F
6HR MIN TEMP:  50; 6HR MAX TEMP:  55;

WAUKESHA       CLOUDY    52  48  87 SW7       30.03F
MILWAUKEE/TIMM MOSUNNY   55  48  76 SW6       30.02F
RACINE         CLOUDY    54  49  83 W8        30.03F
6HR MIN TEMP:  50; 6HR MAX TEMP:  54;

BURLINGTON     CLOUDY    52  50  91 W3        30.01F
6HR MIN TEMP:  48; 6HR MAX TEMP:  52;

KENOSHA        CLOUDY    53  51  93 W9        30.02F FOG
6HR MIN TEMP:  50; 6HR MAX TEMP:  54;

FOND DU LAC    CLOUDY    52  48  86 SW6       30.00F
6HR MIN TEMP:  48; 6HR MAX TEMP:  52;

SHEBOYGAN      PTSUNNY   55  48  77 SW7       29.99F
6HR MIN TEMP:  48; 6HR MAX TEMP:  55;

WEST BEND      MOSUNNY   55  48  76 SW6       30.00F
JUNEAU         CLOUDY    51  49  94 S8        30.02F
6HR MIN TEMP:  47; 6HR MAX TEMP:  51;

$$

LSZ147-162-241900-
LAKE SUPERIOR

STATION/POSITION TIME  TEMP    WIND        PRES    WAVE
                       AIR SEA DIR/SP/G            HT/PER
                 (UTC) (F)     (DEG/KT/KT) (MB)    (FT/S)
W MID LAKE BUOY  1750   48 47  210/  6/  6 1010.2F   1/ 3
DEVILS ISLAND    1800   51     340/  3/  4 1009.8F
PORT WING        1740   53     350/  3/  4 1009.8F
SAXON HARBOR     1700   64     180/  9/ 15 1010.8
$$

LMZ867-665-643>646-241900-
LAKE MICHIGAN

STATION/POSITION TIME  TEMP    WIND        PRES    WAVE



USA.gov is the U.S. government's official web portal to all federal, state and local government web resources and services.